Location: Mentone
(34.5413°N, 85.5351°W)
Time: 16:02:19
(UTC-05:00)

Amateur Radio Satellites - All Passes

Search period start: 28 June 2017 15:32
Search period end: 29 June 2017 15:32
Location: Mentone, 34.5413°N, 85.5351°W

Satellite Date Start Highest point End Downlink Frequencies (MHz)
Time Altitude Azimuth
MOZHAYETS 4 28 Jun 15:32:39 15:36:50 34° 98° (E) 15:40:58
AO-7 28 Jun 16:02:03 16:10:08 55° 257° (WSW) 16:18:18 .
JUGNU 28 Jun 16:07:38 16:09:58 12° 194° (SSW) 16:12:19 437.505
SRMSAT 28 Jun 16:08:46 16:12:54 19° 179° (S) 16:17:01 437.500
CUBESAT XI-V 28 Jun 16:23:03 16:26:33 21° 95° (E) 16:30:02 437.345
ITUPSAT 1 28 Jun 16:23:42 16:28:11 42° 288° (WNW) 16:32:39 437.325
BEESAT 28 Jun 16:31:33 16:35:50 34° 289° (WNW) 16:40:05 436.000
KKS-1 28 Jun 16:42:24 16:45:52 22° 96° (E) 16:49:19 437.445
DOVE 4 28 Jun 16:44:00 16:46:54 19° 68° (ENE) 16:49:52 437.250
ITAMSAT 1 28 Jun 16:51:13 16:53:40 13° 267° (W) 16:56:08 435.822/435.867
STARS 28 Jun 17:03:21 17:05:49 15° 94° (E) 17:08:17 437.465
XW-2F 28 Jun 17:04:02 17:05:07 11° 68° (ENE) 17:06:10 145.980 - 146.000
XW-2D 28 Jun 17:09:22 17:11:29 14° 69° (ENE) 17:13:35 145.860 - 145.880
MOZHAYETS 4 28 Jun 17:10:31 17:13:41 19° 292° (WNW) 17:16:51
XW-2B 28 Jun 17:17:55 17:20:32 18° 70° (ENE) 17:23:08 145.730 - 145.750
LilacSat-2 28 Jun 17:20:59 17:23:55 21° 71° (ENE) 17:26:51 437.200
XW-2C 28 Jun 17:32:49 17:36:06 28° 73° (ENE) 17:39:24 145.795 - 145.815
KAITUO 1B 28 Jun 17:38:33 17:41:39 24° 72° (ENE) 17:44:44 145.475/437.950
SRMSAT 28 Jun 17:57:53 18:01:21 16° 190° (S) 18:04:50 437.500
CUBESAT XI-V 28 Jun 17:59:53 18:03:53 30° 289° (WNW) 18:07:52 437.345
NUDT-PHONESAT 28 Jun 18:08:31 18:12:13 62° 76° (ENE) 18:15:56 437.300
CUTE-I 28 Jun 18:15:52 18:21:11 84° 76° (ENE) 18:26:33 437.470
KKS-1 28 Jun 18:18:31 18:22:21 28° 290° (WNW) 18:26:11 437.445
RS-15 28 Jun 18:20:05 18:26:55 17° 98° (E) 18:33:48 29.354- 29.394
DOVE 4 28 Jun 18:20:46 18:24:22 28° 264° (W) 18:28:05 437.250
HO-68 28 Jun 18:20:53 18:27:08 33° 65° (ENE) 18:33:22 435.675
XW-2F 28 Jun 18:35:11 18:38:49 41° 261° (W) 18:42:27 145.980 - 146.000
CUBEBUG 2 28 Jun 18:35:43 18:37:51 13° 65° (ENE) 18:40:01 437.445
STARS 28 Jun 18:38:07 18:42:17 41° 287° (WNW) 18:46:26 437.465
XW-2D 28 Jun 18:41:55 18:45:21 31° 262° (W) 18:48:48 145.860 - 145.880
XW-2B 28 Jun 18:51:19 18:54:30 25° 263° (W) 18:57:42 145.730 - 145.750
LilacSat-2 28 Jun 18:55:04 18:58:03 21° 264° (W) 19:01:02 437.200
SEEDS 28 Jun 18:58:25 19:01:55 26° 72° (ENE) 19:05:26 437.485
UWE-3 28 Jun 19:01:31 19:04:06 15° 66° (ENE) 19:06:42 435.000/436.395/437.385
XW-2C 28 Jun 19:07:55 19:10:16 16° 266° (W) 19:12:39 145.795 - 145.815
KAITUO 1B 28 Jun 19:13:02 19:15:35 17° 265° (W) 19:18:08 145.475/437.950
CUTE 1.7 + AOD 2 28 Jun 19:21:50 19:26:04 88° 81° (E) 19:30:20 437.475
BEESAT 3 28 Jun 19:21:53 19:25:25 32° 113° (ESE) 19:29:00 437.485
PCSat 28 Jun 19:24:56 19:27:33 13° 48° (NE) 19:30:10 145.827
XW-2A 28 Jun 19:36:53 19:40:18 77° 259° (W) 19:43:46 145.665 - 145.685
AAUSAT CUBESAT 2 28 Jun 19:38:28 19:42:12 34° 73° (ENE) 19:45:56 437.432
AO-73 28 Jun 19:46:16 19:49:48 23° 70° (ENE) 19:53:22 145.935
AO-85 28 Jun 19:51:17 19:55:21 59° 300° (WNW) 19:59:16 145.980
YUBILEINY 28 Jun 19:57:18 20:00:46 13° 77° (ENE) 20:04:13 435.215
STRAND 1 28 Jun 19:57:34 20:02:41 63° 102° (ESE) 20:07:45 437.568
NO-84 28 Jun 20:07:00 20:10:38 68° 129° (SE) 20:14:37 435.350 FM
HO-68 28 Jun 20:07:55 20:14:37 42° 261° (W) 20:21:22 435.675
Oscar 11 28 Jun 20:08:55 20:12:40 29° 72° (ENE) 20:16:27 .
CUBEBUG 2 28 Jun 20:09:24 20:13:54 55° 261° (W) 20:18:32 437.445
ZACube-1 28 Jun 20:22:20 20:26:51 66° 75° (ENE) 20:31:24 437.345
RS-15 28 Jun 20:25:22 20:37:26 83° 116° (ESE) 20:49:51 29.354- 29.394
BEESAT 2 28 Jun 20:28:34 20:32:29 66° 117° (ESE) 20:36:29 435.950
SEEDS 28 Jun 20:34:27 20:37:33 20° 265° (W) 20:40:38 437.485
DELFI C3 28 Jun 20:34:51 20:36:31 12° 68° (ENE) 20:38:10 145.870
UWE-3 28 Jun 20:35:40 20:40:05 47° 261° (W) 20:44:35 435.000/436.395/437.385
O/OREOS (USA 219) 28 Jun 20:42:36 20:47:08 71° 107° (ESE) 20:51:38 437.305
BEESAT 3 28 Jun 21:00:14 21:03:03 18° 308° (NW) 21:05:54 437.485
PCSat 28 Jun 21:06:09 21:11:36 83° 245° (WSW) 21:17:00 145.827
SO-50 28 Jun 21:12:43 21:13:52 11° 45° (NE) 21:15:00 436.795
AAUSAT CUBESAT 2 28 Jun 21:15:26 21:17:43 15° 267° (W) 21:20:01 437.432
FO-29 28 Jun 21:17:30 21:23:39 25° 92° (E) 21:29:35 435.910
AO-73 28 Jun 21:21:54 21:25:50 29° 264° (W) 21:29:48 145.935
STRAND 1 28 Jun 21:38:47 21:41:15 14° 296° (WNW) 21:43:44 437.568
UNISAT 6 28 Jun 21:40:47 21:43:41 17° 93° (E) 21:46:33 437.425
Oscar 11 28 Jun 21:45:40 21:48:48 19° 265° (W) 21:51:55 .
NO-84 28 Jun 21:46:08 21:48:38 16° 328° (NNW) 21:51:14 435.350 FM
YUBILEINY 28 Jun 21:47:17 21:56:05 83° 94° (E) 22:04:57 435.215
DELFI C3 28 Jun 22:07:14 22:10:53 38° 262° (W) 22:14:34 145.870
BEESAT 2 28 Jun 22:09:40 22:10:39 11° 313° (NW) 22:11:39 435.950
EO-88 28 Jun 22:11:54 22:15:28 49° 260° (W) 22:19:03 145.990 - 145.960
M-CUBED/EXP-1 PRIME 28 Jun 22:13:46 22:17:37 52° 105° (ESE) 22:21:44 437.505
LO-87 28 Jun 22:23:20 22:26:02 21° 71° (ENE) 22:28:45 145.935 - 145.965
O/OREOS (USA 219) 28 Jun 22:26:52 22:27:00 10° 304° (WNW) 22:27:07 437.305
TIGRISAT 28 Jun 22:32:45 22:37:19 61° 100° (E) 22:41:45 435.000
RS-15 28 Jun 22:41:04 22:51:25 31° 319° (NW) 23:01:56 29.354- 29.394
SO-50 28 Jun 22:50:21 22:54:53 85° 243° (WSW) 22:59:28 436.795
PRISM 28 Jun 22:54:18 22:58:23 65° 284° (WNW) 23:02:27 437.425
ESTCUBE 1 28 Jun 23:00:54 23:05:06 41° 73° (ENE) 23:09:18 437.505/2401.250
FO-29 28 Jun 23:01:15 23:09:00 62° 288° (WNW) 23:16:26 435.910
AIST 2D 28 Jun 23:12:43 23:15:04 17° 95° (E) 23:17:24 435.315
UNISAT 6 28 Jun 23:16:14 23:20:30 38° 288° (WNW) 23:24:39 437.425
POLYITAN 1 28 Jun 23:22:11 23:23:08 11° 92° (E) 23:24:04 437.675
QB50P2 28 Jun 23:31:39 23:34:20 16° 94° (E) 23:37:01 145.880/145.840
YUBILEINY 28 Jun 23:48:26 23:53:53 18° 293° (WNW) 23:59:23 435.215
M-CUBED/EXP-1 PRIME 28 Jun 23:50:36 23:51:42 11° 296° (WNW) 23:52:48 437.505
EO-79 28 Jun 23:53:58 23:57:37 27° 97° (E) 00:01:15 145.935-145.965
LO-87 28 Jun 23:56:54 23:59:22 18° 265° (W) 00:01:51 145.935 - 145.965
DUCHIFAT 1 29 Jun 00:03:22 00:07:02 28° 97° (E) 00:10:39 145.980
TIGRISAT 29 Jun 00:12:01 00:13:22 11° 296° (WNW) 00:14:44 435.000
NANOSAT C BR1 29 Jun 00:13:41 00:17:45 43° 99° (E) 00:21:46 145.865
SPROUT 29 Jun 00:14:43 00:18:56 69° 76° (ENE) 00:23:13 437.525
VELOX 1 29 Jun 00:22:14 00:26:36 78° 75° (ENE) 00:30:59 145.980
DX 1 29 Jun 00:30:16 00:33:57 28° 71° (ENE) 00:37:38 434.975-435.025
ESTCUBE 1 29 Jun 00:39:28 00:42:01 15° 266° (W) 00:44:35 437.505/2401.250
UKube-1 29 Jun 00:39:50 00:43:15 24° 70° (ENE) 00:46:42 .
50 SAT 29 Jun 00:44:21 00:47:40 61° 75° (ENE) 00:50:59 437.505
AIST 2D 29 Jun 00:45:34 00:48:10 20° 288° (WNW) 00:50:46 435.315
FO-29 29 Jun 00:50:49 00:52:24 11° 305° (NW) 00:53:59 435.910
POLYITAN 1 29 Jun 00:55:01 00:59:09 50° 286° (WNW) 01:03:15 437.675
BUGSAT 1 29 Jun 00:58:01 01:01:53 34° 98° (E) 01:05:42 437.445
Oscar 19 29 Jun 01:02:00 01:04:44 14° 93° (E) 01:07:28 437.125/150
RS-15 29 Jun 01:04:46 01:10:02 13° 354° (N) 01:15:15 29.354- 29.394
QB50P2 29 Jun 01:06:19 01:10:11 33° 288° (WNW) 01:13:59 145.880/145.840
EO-79 29 Jun 01:30:01 01:33:10 20° 291° (WNW) 01:36:19 145.935-145.965
DUCHIFAT 1 29 Jun 01:39:24 01:42:29 20° 291° (WNW) 01:45:32 145.980
NANOSAT C BR1 29 Jun 01:50:57 01:53:02 14° 293° (WNW) 01:55:07 145.865
ITUPSAT 1 29 Jun 01:51:20 01:53:49 14° 65° (ENE) 01:56:17 437.325
BEESAT 29 Jun 01:58:03 02:01:06 17° 66° (ENE) 02:04:09 436.000
DX 1 29 Jun 02:06:52 02:10:05 20° 264° (W) 02:13:18 434.975-435.025
UKube-1 29 Jun 02:15:41 02:19:09 24° 264° (W) 02:22:38 .
Gurwin Techsat 1B 29 Jun 02:24:00 02:29:18 63° 101° (ESE) 02:34:33 435.225
MOZHAYETS 4 29 Jun 02:31:21 02:34:58 23° 69° (ENE) 02:38:36
BUGSAT 1 29 Jun 02:34:14 02:36:55 16° 292° (WNW) 02:39:34 437.445
Oscar 19 29 Jun 02:39:20 02:44:19 54° 287° (WNW) 02:49:17 437.125/150
NO-84 29 Jun 02:44:23 02:47:01 15° 31° (NNE) 02:49:38 435.350 FM
RS-15 29 Jun 03:20:53 03:29:42 22° 31° (NNE) 03:38:13 29.354- 29.394
CUBESAT XI-V 29 Jun 03:23:53 03:26:28 15° 67° (ENE) 03:29:01 437.345
ITAMSAT 1 29 Jun 03:25:39 03:30:07 28° 97° (E) 03:34:32 435.822/435.867
ITUPSAT 1 29 Jun 03:26:26 03:31:07 54° 259° (W) 03:35:51 437.325
BEESAT 29 Jun 03:33:57 03:38:29 43° 261° (W) 03:43:03 436.000
KKS-1 29 Jun 03:38:16 03:40:29 14° 66° (ENE) 03:42:41 437.445
Gurwin Techsat 1B 29 Jun 04:05:53 04:08:39 14° 296° (WNW) 04:11:24 435.225
AO-7 29 Jun 04:07:18 04:15:40 66° 105° (ESE) 04:23:56 .
MOZHAYETS 4 29 Jun 04:07:56 04:11:56 29° 263° (W) 04:15:58
NO-84 29 Jun 04:20:46 04:25:10 90° 47° (NE) 04:29:24 435.350 FM
AO-85 29 Jun 04:25:06 04:29:01 38° 57° (ENE) 04:33:10 145.980
BEESAT 2 29 Jun 04:50:38 04:52:55 14° 49° (NE) 04:55:12 435.950
CUBESAT XI-V 29 Jun 04:58:57 05:03:24 46° 261° (W) 05:07:51 437.345
ITAMSAT 1 29 Jun 05:04:58 05:09:28 30° 291° (WNW) 05:13:57 435.822/435.867
KKS-1 29 Jun 05:12:19 05:16:34 46° 260° (W) 05:20:52 437.445
BEESAT 3 29 Jun 05:18:42 05:22:43 87° 62° (ENE) 05:26:38 437.485
STARS 29 Jun 05:30:32 05:34:54 74° 257° (WSW) 05:39:18 437.465
RS-15 29 Jun 05:32:50 05:44:57 70° 58° (ENE) 05:56:20 29.354- 29.394
ISS 29 Jun 05:50:30 05:52:48 18° 129° (SE) 05:55:08 437.550
AO-7 29 Jun 06:01:14 06:07:43 26° 301° (WNW) 06:14:12 .
AO-85 29 Jun 06:06:22 06:09:09 17° 249° (WSW) 06:12:03 145.980
XW-2F 29 Jun 06:11:05 06:14:04 23° 96° (E) 06:17:03 145.980 - 146.000
XW-2D 29 Jun 06:17:41 06:21:02 30° 97° (E) 06:24:21 145.860 - 145.880
Tancredo 1 29 Jun 06:18:11 06:21:11 76° 316° (NW) 06:24:12 437.200
DOVE 4 29 Jun 06:21:11 06:26:16 89° 102° (ESE) 06:31:32 437.250
XW-2B 29 Jun 06:26:39 06:30:11 39° 98° (E) 06:33:41 145.730 - 145.750
BEESAT 2 29 Jun 06:27:01 06:30:54 45° 245° (WSW) 06:34:43 435.950
LilacSat-2 29 Jun 06:30:44 06:34:24 48° 99° (E) 06:38:02 437.200
CUTE-I 29 Jun 06:36:36 06:41:45 45° 99° (E) 06:46:53 437.470
XW-2C 29 Jun 06:42:12 06:45:56 67° 101° (E) 06:49:38 145.795 - 145.815
KAITUO 1B 29 Jun 06:46:12 06:49:50 55° 100° (E) 06:53:27 145.475/437.950
O/OREOS (USA 219) 29 Jun 06:56:06 07:00:35 75° 70° (ENE) 07:05:02 437.305
STRAND 1 29 Jun 07:09:45 07:14:49 62° 74° (ENE) 07:19:54 437.568
CUTE 1.7 + AOD 2 29 Jun 07:11:01 07:14:01 19° 95° (E) 07:17:01 437.475
NUDT-PHONESAT 29 Jun 07:16:02 07:19:37 53° 285° (WNW) 07:23:12 437.300
ISS 29 Jun 07:26:07 07:29:06 33° 323° (NW) 07:32:06 437.550
HO-68 29 Jun 07:39:00 07:45:53 48° 100° (E) 07:52:42 435.675
XW-2F 29 Jun 07:45:26 07:48:01 18° 290° (WNW) 07:50:35 145.980 - 146.000
RS-15 29 Jun 07:46:49 07:56:14 29° 258° (WSW) 08:05:20 29.354- 29.394
XW-2D 29 Jun 07:52:57 07:54:54 14° 291° (WNW) 07:56:51 145.860 - 145.880
YUBILEINY 29 Jun 08:02:33 08:10:25 35° 75° (ENE) 08:18:11 435.215
XW-2B 29 Jun 08:02:51 08:03:58 11° 292° (WNW) 08:05:04 145.730 - 145.750
CUBEBUG 2 29 Jun 08:03:55 08:08:19 41° 98° (E) 08:12:34 437.445
ZACube-1 29 Jun 08:15:37 08:18:21 16° 93° (E) 08:21:03 437.345
CUTE-I 29 Jun 08:17:36 08:21:25 20° 294° (WNW) 08:25:14 437.470
SEEDS 29 Jun 08:20:14 08:24:24 85° 102° (ESE) 08:28:34 437.485
UWE-3 29 Jun 08:28:52 08:33:12 45° 98° (E) 08:37:24 435.000/436.395/437.385
XW-2A 29 Jun 08:34:45 08:37:58 40° 285° (WNW) 08:41:08 145.665 - 145.685
UNISAT 6 29 Jun 08:38:12 08:39:02 10° 64° (ENE) 08:39:53 437.425
CUTE 1.7 + AOD 2 29 Jun 08:46:14 08:49:49 28° 288° (WNW) 08:53:23 437.475
STRAND 1 29 Jun 08:52:15 08:54:20 12° 268° (W) 08:56:27 437.568
M-CUBED/EXP-1 PRIME 29 Jun 08:57:30 09:00:22 29° 69° (ENE) 09:03:14 437.505
AAUSAT CUBESAT 2 29 Jun 08:58:41 09:02:48 74° 283° (WNW) 09:06:54 437.432
FO-29 29 Jun 09:09:13 09:14:58 43° 69° (ENE) 09:21:27 435.910
AO-73 29 Jun 09:12:47 09:17:10 73° 101° (E) 09:21:24 145.935
HO-68 29 Jun 09:27:18 09:33:14 29° 296° (WNW) 09:39:09 435.675
TIGRISAT 29 Jun 09:27:35 09:31:45 35° 72° (ENE) 09:36:00 435.000
Oscar 11 29 Jun 09:34:49 09:39:08 81° 282° (WNW) 09:43:24 .
PRISM 29 Jun 09:39:46 09:43:41 51° 74° (ENE) 09:47:37 437.425
CUBEBUG 2 29 Jun 09:41:39 09:44:30 16° 293° (WNW) 09:47:18 437.445
EO-88 29 Jun 09:44:57 09:47:20 16° 95° (E) 09:49:42 145.990 - 145.960
DELFI C3 29 Jun 09:47:30 09:51:00 30° 98° (E) 09:54:31 145.870
ZACube-1 29 Jun 09:50:44 09:54:43 35° 288° (WNW) 09:58:37 437.345
YUBILEINY 29 Jun 09:59:04 10:07:14 45° 272° (W) 10:15:22 435.215
PCSat 29 Jun 10:02:26 10:06:24 21° 106° (ESE) 10:10:24 145.827
UWE-3 29 Jun 10:06:50 10:09:11 14° 294° (WNW) 10:11:29 435.000/436.395/437.385
UNISAT 6 29 Jun 10:10:29 10:15:04 69° 259° (W) 10:19:45 437.425
JUGNU 29 Jun 10:27:49 10:29:55 12° 166° (SSE) 10:32:02 437.505
EO-79 29 Jun 10:44:10 10:46:22 14° 67° (ENE) 10:48:32 145.935-145.965
DUCHIFAT 1 29 Jun 10:52:56 10:55:07 14° 67° (ENE) 10:57:18 145.980
FO-29 29 Jun 10:55:09 11:00:11 27° 267° (W) 11:05:47 435.910
ESTCUBE 1 29 Jun 10:59:09 11:00:25 11° 92° (E) 11:01:41 437.505/2401.250
NANOSAT C BR1 29 Jun 11:02:46 11:05:55 21° 69° (ENE) 11:09:05 145.865
TIGRISAT 29 Jun 11:05:13 11:08:28 19° 266° (W) 11:11:47 435.000
AIST 2D 29 Jun 11:15:09 11:18:41 75° 79° (E) 11:22:15 435.315
EO-88 29 Jun 11:18:01 11:20:56 23° 288° (WNW) 11:23:51 145.990 - 145.960
DELFI C3 29 Jun 11:23:06 11:25:29 16° 291° (WNW) 11:27:53 145.870
LO-87 29 Jun 11:25:58 11:29:27 41° 99° (E) 11:32:53 145.935 - 145.965
POLYITAN 1 29 Jun 11:43:21 11:47:36 72° 76° (ENE) 11:51:54 437.675
PCSat 29 Jun 11:44:18 11:49:26 43° 301° (WNW) 11:54:37 145.827
BUGSAT 1 29 Jun 11:45:14 11:47:43 16° 68° (ENE) 11:50:13 437.445
QB50P2 29 Jun 11:54:29 11:58:44 75° 258° (WSW) 12:03:01 145.880/145.840
SPROUT 29 Jun 12:05:10 12:07:42 15° 94° (E) 12:10:13 437.525
JUGNU 29 Jun 12:14:15 12:18:12 18° 175° (S) 12:22:10 437.505
Oscar 19 29 Jun 12:15:40 12:18:43 16° 65° (ENE) 12:21:46 437.125/150
VELOX 1 29 Jun 12:16:31 12:19:41 19° 95° (E) 12:22:52 145.980
EO-79 29 Jun 12:17:41 12:21:42 42° 261° (W) 12:25:46 145.935-145.965
DUCHIFAT 1 29 Jun 12:26:23 12:30:22 41° 261° (W) 12:34:24 145.980
ESTCUBE 1 29 Jun 12:33:07 12:37:29 54° 285° (WNW) 12:41:51 437.505/2401.250
NANOSAT C BR1 29 Jun 12:37:49 12:41:25 27° 263° (W) 12:45:04 145.865
Tancredo 1 29 Jun 12:45:31 12:47:53 20° 34° (NE) 12:50:15 437.200
SO-50 29 Jun 13:00:54 13:05:26 72° 118° (ESE) 13:09:58 436.795
AO-7 29 Jun 13:16:20 13:19:07 12° 50° (NE) 13:21:56 .
BUGSAT 1 29 Jun 13:18:57 13:22:44 35° 262° (W) 13:26:35 437.445
SPROUT 29 Jun 13:39:44 13:43:41 36° 287° (WNW) 13:47:37 437.525
Gurwin Techsat 1B 29 Jun 13:41:28 13:46:45 71° 75° (ENE) 13:52:03 435.225
50 SAT 29 Jun 13:42:29 13:45:54 74° 283° (WNW) 13:49:18 437.505
VELOX 1 29 Jun 13:52:13 13:56:08 31° 289° (WNW) 14:00:04 145.980
Oscar 19 29 Jun 13:52:32 13:57:33 53° 259° (W) 14:02:35 437.125/150
ISS 29 Jun 13:56:24 13:59:37 51° 41° (NE) 14:02:50 437.550
DX 1 29 Jun 13:56:58 14:01:23 88° 110° (ESE) 14:05:45 434.975-435.025
JUGNU 29 Jun 14:02:36 14:06:31 18° 186° (S) 14:10:27 437.505
UKube-1 29 Jun 14:04:59 14:09:19 71° 102° (ESE) 14:13:37 .
SRMSAT 29 Jun 14:07:52 14:11:25 16° 171° (S) 14:14:58 437.500
Tancredo 1 29 Jun 14:20:47 14:23:27 28° 229° (SW) 14:26:05 437.200
ITAMSAT 1 29 Jun 14:40:11 14:44:41 31° 69° (ENE) 14:49:13 435.822/435.867
SO-50 29 Jun 14:44:27 14:46:22 12° 314° (NW) 14:48:17 436.795
AO-7 29 Jun 15:02:05 15:10:16 65° 69° (ENE) 15:18:31 .
Gurwin Techsat 1B 29 Jun 15:25:34 15:27:07 11° 269° (W) 15:28:41 435.225
